• In Czech Republic
  • List of Countries
  • For 7 days
  • Water Temperature
  • Satellite Maps
  • Weather Map
  • Weather Widgets
  • user-avatar
    Login

    Hourly Weather Maksimkovo

    Today, 16 July, Monday

    Time Temperature Precipitation Wind Pressure Humidity
    00:00 +19°C° 0 mm 1 mps 735 mmHg 95%
    01:00 +19°C° 0 mm 1 mps 735 mmHg 96%
    02:00 +18°C° 0 mm 1 mps 735 mmHg 97%
    03:00 +18°C° 0.1 mm 1 mps 735 mmHg 97%
    04:00 +18°C° 0.1 mm 2 mps 735 mmHg 97%
    05:00 +18°C° 0.1 mm 2 mps 735 mmHg 97%
    06:00 +19°C° 0 mm 2 mps 735 mmHg 91%
    07:00 +21°C° 0 mm 3 mps 735 mmHg 86%
    08:00 +24°C° 0 mm 3 mps 736 mmHg 81%
    09:00 +25°C° 0.2 mm 3 mps 735 mmHg 74%
    10:00 +26°C° 0.2 mm 3 mps 735 mmHg 67%
    11:00 +28°C° 0.2 mm 4 mps 735 mmHg 60%
    12:00 +27°C° 0.4 mm 4 mps 735 mmHg 65%
    13:00 +27°C° 0.4 mm 4 mps 735 mmHg 69%
    14:00 +27°C° 0.4 mm 4 mps 734 mmHg 73%
    15:00 +27°C° 0 mm 4 mps 734 mmHg 70%
    16:00 +27°C° 0 mm 4 mps 734 mmHg 67%
    17:00 +27°C° 0 mm 4 mps 734 mmHg 63%
    18:00 +26°C° 0 mm 3 mps 734 mmHg 70%
    19:00 +24°C° 0 mm 3 mps 734 mmHg 77%
    20:00 +23°C° 0 mm 2 mps 734 mmHg 84%
    21:00 +21°C° 0 mm 3 mps 734 mmHg 86%
    22:00 +20°C° 0 mm 3 mps 734 mmHg 87%
    23:00 +20°C° 0 mm 3 mps 734 mmHg 89%

    Tomorrow, 17 July, Tuesday

    Time Temperature Precipitation Wind Pressure Humidity
    00:00 +19°C° 0 mm 3 mps 734 mmHg 91%
    01:00 +19°C° 0 mm 3 mps 734 mmHg 92%
    02:00 +19°C° 0 mm 3 mps 734 mmHg 94%
    03:00 +19°C° 0 mm 3 mps 734 mmHg 93%
    04:00 +19°C° 0 mm 3 mps 734 mmHg 93%
    05:00 +19°C° 0 mm 4 mps 734 mmHg 92%
    06:00 +21°C° 0 mm 4 mps 734 mmHg 85%
    07:00 +22°C° 0 mm 4 mps 734 mmHg 78%
    08:00 +25°C° 0 mm 5 mps 734 mmHg 71%
    09:00 +26°C° 0 mm 5 mps 734 mmHg 66%
    10:00 +27°C° 0 mm 5 mps 734 mmHg 61%
    11:00 +29°C° 0 mm 5 mps 734 mmHg 56%
    12:00 +29°C° 0 mm 5 mps 733 mmHg 54%
    13:00 +29°C° 0 mm 5 mps 733 mmHg 53%
    14:00 +30°C° 0 mm 5 mps 733 mmHg 51%
    15:00 +29°C° 0 mm 5 mps 733 mmHg 53%
    16:00 +29°C° 0 mm 5 mps 733 mmHg 55%
    17:00 +28°C° 0 mm 5 mps 733 mmHg 58%
    18:00 +27°C° 0 mm 4 mps 733 mmHg 64%
    19:00 +25°C° 0 mm 4 mps 733 mmHg 71%
    20:00 +22°C° 0 mm 3 mps 733 mmHg 77%
    21:00 +22°C° 0 mm 3 mps 732 mmHg 79%
    22:00 +21°C° 0 mm 3 mps 732 mmHg 80%
    23:00 +20°C° 0 mm 3 mps 732 mmHg 82%

    Day after tomorrow, 18 July, Wednesday

    Time Temperature Precipitation Wind Pressure Humidity
    00:00 +20°C° 0 mm 3 mps 732 mmHg 81%
    01:00 +20°C° 0 mm 3 mps 732 mmHg 81%
    02:00 +20°C° 0 mm 4 mps 732 mmHg 80%
    03:00 +20°C° 0 mm 4 mps 732 mmHg 80%
    04:00 +19°C° 0 mm 4 mps 732 mmHg 81%
    05:00 +19°C° 0 mm 4 mps 732 mmHg 82%
    06:00 +20°C° 0.3 mm 4 mps 732 mmHg 84%
    07:00 +20°C° 0.3 mm 4 mps 732 mmHg 87%
    08:00 +20°C° 0.3 mm 4 mps 732 mmHg 89%
    09:00 +21°C° 0.1 mm 4 mps 732 mmHg 86%
    10:00 +22°C° 0.1 mm 4 mps 732 mmHg 82%
    11:00 +22°C° 0.1 mm 5 mps 732 mmHg 78%
    12:00 +23°C° 1.1 mm 5 mps 731 mmHg 79%
    13:00 +23°C° 1.1 mm 5 mps 731 mmHg 80%
    14:00 +23°C° 1.1 mm 5 mps 731 mmHg 81%
    15:00 +23°C° 0.9 mm 4 mps 731 mmHg 83%
    16:00 +23°C° 0.9 mm 4 mps 731 mmHg 84%
    17:00 +22°C° 0.9 mm 4 mps 731 mmHg 86%
    18:00 +21°C° 0.3 mm 4 mps 731 mmHg 89%
    19:00 +20°C° 0.3 mm 3 mps 731 mmHg 91%
    20:00 +19°C° 0.3 mm 3 mps 731 mmHg 94%
    21:00 +19°C° 0 mm 3 mps 731 mmHg 95%
    22:00 +19°C° 0 mm 3 mps 731 mmHg 96%
    23:00 +18°C° 0 mm 3 mps 731 mmHg 96%

    19 July, Thursday

    Time Temperature Precipitation Wind Pressure Humidity
    00:00 +18°C° 0.1 mm 3 mps 731 mmHg 97%
    01:00 +18°C° 0.1 mm 3 mps 731 mmHg 97%
    02:00 +18°C° 0.1 mm 3 mps 731 mmHg 97%
    03:00 +18°C° 0.1 mm 3 mps 731 mmHg 97%
    04:00 +18°C° 0.1 mm 3 mps 731 mmHg 97%
    05:00 +18°C° 0.1 mm 3 mps 731 mmHg 96%
    06:00 +18°C° 0.1 mm 3 mps 731 mmHg 96%
    07:00 +19°C° 0.1 mm 3 mps 731 mmHg 95%
    08:00 +19°C° 0.1 mm 3 mps 731 mmHg 94%
    09:00 +19°C° 0.1 mm 4 mps 731 mmHg 92%
    10:00 +20°C° 0.1 mm 4 mps 731 mmHg 91%
    11:00 +20°C° 0.1 mm 4 mps 731 mmHg 89%
    12:00 +21°C° 0.1 mm 4 mps 731 mmHg 84%
    13:00 +21°C° 0.1 mm 4 mps 731 mmHg 80%
    14:00 +22°C° 0.1 mm 4 mps 731 mmHg 75%
    15:00 +22°C° 0.2 mm 4 mps 731 mmHg 76%
    16:00 +22°C° 0.2 mm 4 mps 731 mmHg 77%
    17:00 +24°C° 0.2 mm 3 mps 731 mmHg 77%
    18:00 +21°C° 0.5 mm 3 mps 731 mmHg 83%
    19:00 +20°C° 0.5 mm 3 mps 730 mmHg 90%
    20:00 +19°C° 0.5 mm 2 mps 730 mmHg 96%
    21:00 +19°C° 0.1 mm 2 mps 730 mmHg 96%
    22:00 +18°C° 0.1 mm 2 mps 730 mmHg 97%
    23:00 +18°C° 0.1 mm 2 mps 730 mmHg 98%

    20 July, Friday

    Time Temperature Precipitation Wind Pressure Humidity
    00:00 +18°C° 0 mm 2 mps 730 mmHg 98%
    01:00 +18°C° 0 mm 2 mps 730 mmHg 98%
    02:00 +18°C° 0 mm 2 mps 730 mmHg 98%
    03:00 +18°C° 0.1 mm 2 mps 730 mmHg 98%
    04:00 +18°C° 0.1 mm 2 mps 730 mmHg 98%
    05:00 +18°C° 0.1 mm 2 mps 730 mmHg 98%
    06:00 +19°C° 0.1 mm 2 mps 730 mmHg 98%
    07:00 +19°C° 0.1 mm 2 mps 730 mmHg 97%
    08:00 +19°C° 0.1 mm 2 mps 730 mmHg 97%
    09:00 +20°C° 0.2 mm 2 mps 730 mmHg 95%
    10:00 +20°C° 0.2 mm 2 mps 730 mmHg 93%
    11:00 +21°C° 0.2 mm 2 mps 730 mmHg 91%
    12:00 +23°C° 0.5 mm 2 mps 730 mmHg 87%
    13:00 +24°C° 0.5 mm 2 mps 730 mmHg 83%
    14:00 +25°C° 0.5 mm 2 mps 730 mmHg 79%
    15:00 +25°C° 0.7 mm 2 mps 730 mmHg 81%
    16:00 +25°C° 0.7 mm 2 mps 730 mmHg 84%
    17:00 +25°C° 0.7 mm 2 mps 730 mmHg 86%
    18:00 +24°C° 0.2 mm 2 mps 730 mmHg 90%
    19:00 +23°C° 0.2 mm 1 mps 730 mmHg 93%
    20:00 +22°C° 0.2 mm 1 mps 730 mmHg 96%
    21:00 +22°C° 0.1 mm 1 mps 730 mmHg 97%
    22:00 +21°C° 0.1 mm 1 mps 730 mmHg 97%
    23:00 +20°C° 0.1 mm 1 mps 730 mmHg 98%

    21 July, Saturday

    Time Temperature Precipitation Wind Pressure Humidity
    00:00 +20°C° 0 mm 1 mps 730 mmHg 98%
    01:00 +20°C° 0 mm 1 mps 730 mmHg 98%
    02:00 +20°C° 0 mm 1 mps 730 mmHg 98%
    03:00 +20°C° 0.1 mm 1 mps 730 mmHg 98%
    04:00 +20°C° 0.1 mm 1 mps 730 mmHg 98%
    05:00 +20°C° 0.1 mm 1 mps 730 mmHg 98%
    06:00 +20°C° 0.3 mm 2 mps 730 mmHg 95%
    07:00 +21°C° 0.3 mm 2 mps 730 mmHg 92%
    08:00 +24°C° 0.3 mm 2 mps 731 mmHg 89%
    09:00 +25°C° 0.4 mm 2 mps 730 mmHg 81%
    10:00 +26°C° 0.4 mm 3 mps 730 mmHg 74%
    11:00 +28°C° 0.4 mm 3 mps 730 mmHg 67%
    12:00 +28°C° 0.8 mm 3 mps 730 mmHg 68%
    13:00 +28°C° 0.8 mm 3 mps 730 mmHg 70%
    14:00 +28°C° 0.8 mm 3 mps 730 mmHg 72%
    15:00 +28°C° 0.9 mm 3 mps 730 mmHg 75%
    16:00 +27°C° 0.9 mm 3 mps 730 mmHg 78%
    17:00 +27°C° 0.9 mm 3 mps 730 mmHg 81%
    18:00 +25°C° 0.2 mm 2 mps 730 mmHg 85%
    19:00 +24°C° 0.2 mm 2 mps 730 mmHg 90%
    20:00 +23°C° 0.2 mm 2 mps 730 mmHg 94%
    21:00 +21°C° 0 mm 2 mps 730 mmHg 95%
    22:00 +20°C° 0 mm 2 mps 730 mmHg 96%
    23:00 +20°C° 0 mm 2 mps 729 mmHg 97%
    Show more